Location: *
(38.9555°S, 57.3572°E)
Time: 01:43:25
(UTC+00:00)

CZ-4B DEB - Pass Details

Date: 15 July 2020
Orbit: 840 x 862 km, 99.1° (Epoch: 06 August)

Event Time Altitude Azimuth Distance (km) Brightness Sun altitude
Rises 13:45:59 0° 165° (SSE) 3,478 7.0 -7.6°
Reaches altitude 10° 13:48:24 10° 164° (SSE) 2,534 6.3 -8.1°
Maximum altitude 13:54:03 80° 76° (ENE) 889 4.3 -9.1°
Drops below altitude 10° 13:59:37 10° 349° (N) 2,498 7.1 -10.1°
Sets 14:01:59 0° 348° (NNW) 3,425 7.8 -10.5°
